Printer-friendly version

IAU Minor Planet Center

Minor Planet Center

C/2006 K4 (NEAT)

Orbital Elements

The following orbital elements are taken from MPC 62270:
C/2006 K4 (NEAT)
Epoch 2007 Dec. 6.0 TT = JDT 2454440.5
T 2007 Nov. 29.3349 TT                                  MPC
q   3.188547             (2000.0)            P               Q
z  +0.000650       Peri.  233.6141      +0.0036618      -0.5535641
 +/-0.000002       Node   116.6035      -0.3087722      +0.7914835
e   0.997926       Incl.  111.3444      -0.9511290      -0.2590765
From 331 observations 2006 May 18-2008 Mar. 14, mean residual 0".7.
Elements are also available for the current standard epoch:
C/2006 K4 (NEAT)
Epoch 2010 Jan. 4.0 TT = JDT 2455200.5
T 2007 Nov. 29.6643 TT                                  MPC
q   3.189702             (2000.0)            P               Q
z  +0.000410       Peri.  233.6735      +0.0033015      -0.5535702
 +/-0.000002       Node   116.6117      -0.3078746      +0.7917857
e   0.998691       Incl.  111.3342      -0.9514212      -0.2581383
An explanation of the orbital elements is available.

These orbital elements are also available in forms suitable for loading into a number of popular planetarium-type software programs.


Ephemeris

The following ephemeris is at intervals of five days. A daily ephemeris covering the same time interval is also available.

Personalized ephemerides for this (and other) objects may be generated using the Minor Planet & Comet Ephemeris Service.

Recent magnitude estimates for this comet (as reported to the ICQ) may be available.

Date    TT    R. A. (2000) Decl.     Delta      r     Elong.  Phase   m1    m2

WARNING!

This comet gets close to the sun during the period covered in the ephemeris below. Observers are warned to be wary of observing comets near the sun. NEVER point any kind of optical instrument at the sun--instant blindness will be the probable result.

2009 10 26 08 49.35 -12 25.4 7.039 6.864 75.9 8.1 18.6 2009 10 31 08 49.18 -12 31.8 6.997 6.898 80.2 8.2 18.6 2009 11 05 08 48.76 -12 37.5 6.954 6.932 84.7 8.2 18.6 2009 11 10 08 48.10 -12 42.3 6.910 6.966 89.2 8.2 18.6 2009 11 15 08 47.17 -12 46.0 6.865 7.000 93.8 8.1 18.6 2009 11 20 08 45.99 -12 48.5 6.821 7.034 98.4 8.0 18.6 2009 11 25 08 44.56 -12 49.5 6.779 7.068 103.1 7.8 18.6 2009 11 30 08 42.88 -12 48.9 6.738 7.102 107.8 7.6 18.7 2009 12 05 08 40.95 -12 46.6 6.700 7.136 112.5 7.3 18.7 2009 12 10 08 38.79 -12 42.2 6.665 7.169 117.2 7.0 18.7 2009 12 15 08 36.41 -12 35.8 6.634 7.203 121.9 6.7 18.7 2009 12 20 08 33.84 -12 27.2 6.608 7.237 126.5 6.3 18.7 2009 12 25 08 31.08 -12 16.3 6.587 7.271 131.0 5.9 18.7 2009 12 30 08 28.18 -12 03.0 6.572 7.304 135.3 5.4 18.7 2010 01 04 08 25.15 -11 47.3 6.564 7.338 139.4 5.0 18.7 2010 01 09 08 22.04 -11 29.3 6.562 7.372 143.1 4.6 18.8 2010 01 14 08 18.86 -11 09.0 6.568 7.406 146.2 4.2 18.8 2010 01 19 08 15.66 -10 46.4 6.581 7.439 148.6 3.9 18.8 2010 01 24 08 12.47 -10 21.8 6.603 7.473 150.2 3.8 18.8 2010 01 29 08 09.33 -09 55.4 6.632 7.507 150.7 3.7 18.9 2010 02 03 08 06.27 -09 27.3 6.670 7.540 150.1 3.7 18.9 2010 02 08 08 03.31 -08 57.7 6.716 7.574 148.4 3.9 18.9 2010 02 13 08 00.50 -08 26.9 6.769 7.607 145.9 4.2 19.0 2010 02 18 07 57.85 -07 55.3 6.831 7.641 142.8 4.5 19.0 2010 02 23 07 55.39 -07 22.9 6.899 7.674 139.1 4.8 19.0 2010 02 28 07 53.13 -06 50.2 6.975 7.708 135.1 5.2 19.1 2010 03 05 07 51.10 -06 17.3 7.057 7.742 130.8 5.6 19.1 2010 03 10 07 49.29 -05 44.6 7.144 7.775 126.4 5.9 19.2 2010 03 15 07 47.72 -05 12.1 7.238 7.808 121.9 6.2 19.2 2010 03 20 07 46.39 -04 40.2 7.336 7.842 117.3 6.5 19.3 2010 03 25 07 45.31 -04 09.0 7.438 7.875 112.6 6.7 19.3 2010 03 30 07 44.46 -03 38.6 7.543 7.909 108.0 6.9 19.4 2010 04 04 07 43.85 -03 09.3 7.652 7.942 103.3 7.0 19.4 2010 04 09 07 43.47 -02 41.0 7.762 7.975 98.7 7.1 19.5 2010 04 14 07 43.31 -02 13.9 7.874 8.009 94.1 7.2 19.5 2010 04 19 07 43.36 -01 48.1 7.987 8.042 89.5 7.2 19.6 2010 04 24 07 43.61 -01 23.6 8.100 8.075 85.0 7.1 19.6 2010 04 29 07 44.06 -01 00.5 8.213 8.108 80.5 7.0 19.7 2010 05 04 07 44.68 -00 38.7 8.325 8.142 76.1 6.9 19.7 2010 05 09 07 45.47 -00 18.3 8.436 8.175 71.7 6.7 19.8 2010 05 14 07 46.41 +00 00.7 8.544 8.208 67.3 6.5 19.8 2010 05 19 07 47.50 +00 18.3 8.650 8.241 63.0 6.3 19.8 2010 05 24 07 48.72 +00 34.6 8.753 8.274 58.8 6.0 19.9 2010 05 29 07 50.05 +00 49.4 8.853 8.307 54.6 5.7 19.9 2010 06 03 07 51.49 +01 03.0 8.949 8.340 50.5 5.4 20.0 2010 06 08 07 53.03 +01 15.3 9.040 8.374 46.4 5.0 20.0 2010 06 13 07 54.65 +01 26.4 9.128 8.407 42.5 4.7 20.0 2010 06 18 07 56.33 +01 36.2 9.210 8.440 38.6 4.3 20.1 2010 06 23 07 58.08 +01 44.9 9.287 8.473 34.8 3.9 20.1 2010 06 28 07 59.88 +01 52.4 9.359 8.505 31.2 3.5 20.2 2010 07 03 08 01.71 +01 58.9 9.425 8.538 27.7 3.2 20.2 2010 07 08 08 03.56 +02 04.3 9.486 8.571 24.5 2.8 20.2 2010 07 13 08 05.44 +02 08.8 9.540 8.604 21.7 2.5 20.2 2010 07 18 08 07.32 +02 12.4 9.589 8.637 19.5 2.2 20.3 2010 07 23 08 09.20 +02 15.0 9.631 8.670 17.9 2.1 20.3 2010 07 28 08 11.06 +02 16.9 9.667 8.703 17.3 2.0 20.3 2010 08 02 08 12.89 +02 18.0 9.696 8.735 17.8 2.0 20.3 2010 08 07 08 14.70 +02 18.4 9.720 8.768 19.2 2.2 20.4 2010 08 12 08 16.46 +02 18.2 9.737 8.801 21.4 2.4 20.4 2010 08 17 08 18.16 +02 17.4 9.747 8.834 24.2 2.7 20.4 2010 08 22 08 19.80 +02 16.1 9.752 8.866 27.4 3.0 20.4 2010 08 27 08 21.37 +02 14.3 9.751 8.899 30.9 3.3 20.4 2010 09 01 08 22.86 +02 12.2 9.743 8.931 34.6 3.7 20.5 2010 09 06 08 24.25 +02 09.8 9.730 8.964 38.6 4.0 20.5 2010 09 11 08 25.54 +02 07.1 9.712 8.997 42.6 4.3 20.5 2010 09 16 08 26.72 +02 04.3 9.688 9.029 46.7 4.7 20.5 2010 09 21 08 27.78 +02 01.4 9.660 9.062 51.0 4.9 20.5 2010 09 26 08 28.72 +01 58.5 9.627 9.094 55.3 5.2 20.5 2010 10 01 08 29.51 +01 55.7 9.590 9.127 59.8 5.4 20.5 2010 10 06 08 30.16 +01 53.0 9.549 9.159 64.2 5.6 20.5 2010 10 11 08 30.66 +01 50.6 9.505 9.191 68.8 5.8 20.5 2010 10 16 08 30.99 +01 48.5 9.458 9.224 73.4 5.9 20.5 2010 10 21 08 31.16 +01 46.8 9.409 9.256 78.1 6.0 20.5 2010 10 26 08 31.15 +01 45.6 9.359 9.288 82.9 6.1 20.5 2010 10 31 08 30.97 +01 45.0 9.307 9.321 87.7 6.1 20.5 2010 11 05 08 30.60 +01 45.1 9.255 9.353 92.6 6.1 20.5 2010 11 10 08 30.05 +01 45.9 9.204 9.385 97.5 6.0 20.5 2010 11 15 08 29.31 +01 47.5 9.153 9.417 102.5 5.9 20.5 2010 11 20 08 28.39 +01 50.1 9.104 9.450 107.6 5.7 20.6 2010 11 25 08 27.29 +01 53.6 9.058 9.482 112.7 5.5 20.6 2010 11 30 08 26.01 +01 58.1 9.014 9.514 117.8 5.3 20.6

Valid HTML 4.01!